When you browse on this site, cookies collect data to enhance your experience and personalize the content and advertising you see.
Visit our Privacy Policy to learn more. By continuing to use the site, you agree to this use of cookies and data.
  • en Suisse
  • Liste des pays
  • À 7 jours
  • Température de l'eau
  • Carte satellitaire
  • Carte météo
  • Widgets météo
  • user-avatar
    Se connecter

    Météo par heure à Kanton

    Ce jour, 20 Novembre, Mardi

    Heure Température Précipitation Vent Pression Humidité
    00:00 -1°C° 0.2 mm 1 m/s 752 mmHg 93%
    01:00 -1°C° 0.2 mm 1 m/s 752 mmHg 93%
    02:00 -1°C° 0.1 mm 1 m/s 752 mmHg 93%
    03:00 -2°C° 0.1 mm 1 m/s 752 mmHg 93%
    04:00 -2°C° 0 mm 1 m/s 752 mmHg 93%
    05:00 -2°C° 0.1 mm 1 m/s 751 mmHg 94%
    06:00 -2°C° 0.1 mm 1 m/s 751 mmHg 94%
    07:00 -2°C° 0.1 mm 1 m/s 751 mmHg 95%
    08:00 -2°C° 0.1 mm 1 m/s 751 mmHg 93%
    09:00 -1°C° 0.1 mm 1 m/s 751 mmHg 92%
    10:00 -3°C° 0 mm 2 m/s 751 mmHg 90%
    11:00 -3°C° 0 mm 2 m/s 751 mmHg 89%
    12:00 -2°C° 0 mm 2 m/s 750 mmHg 88%
    13:00 -2°C° 0 mm 2 m/s 750 mmHg 88%
    14:00 -2°C° 0 mm 2 m/s 750 mmHg 89%
    15:00 -2°C° 0 mm 2 m/s 750 mmHg 91%
    16:00 0°C° 0 mm 1 m/s 749 mmHg 94%
    17:00 0°C° 0 mm 1 m/s 749 mmHg 94%
    18:00 -3°C° 0 mm 2 m/s 748 mmHg 95%
    19:00 -3°C° 0 mm 2 m/s 748 mmHg 96%
    20:00 -3°C° 0 mm 2 m/s 748 mmHg 95%
    21:00 -3°C° 0 mm 2 m/s 747 mmHg 95%
    22:00 -3°C° 0 mm 2 m/s 747 mmHg 95%
    23:00 -4°C° 0 mm 3 m/s 747 mmHg 94%

    Demain, 21 Novembre, Mercredi

    Heure Température Précipitation Vent Pression Humidité
    00:00 -4°C° 0 mm 3 m/s 746 mmHg 92%
    01:00 -4°C° 0 mm 3 m/s 746 mmHg 91%
    02:00 -4°C° 0 mm 3 m/s 745 mmHg 90%
    03:00 -4°C° 0 mm 4 m/s 745 mmHg 90%
    04:00 -4°C° 0 mm 4 m/s 744 mmHg 89%
    05:00 -5°C° 0.1 mm 4 m/s 743 mmHg 88%
    06:00 -6°C° 0.1 mm 5 m/s 743 mmHg 86%
    07:00 -6°C° 0.1 mm 5 m/s 742 mmHg 85%
    08:00 -6°C° 0.1 mm 5 m/s 741 mmHg 85%
    09:00 -6°C° 0.1 mm 5 m/s 741 mmHg 84%
    10:00 -6°C° 0.1 mm 6 m/s 740 mmHg 84%
    11:00 -6°C° 0.4 mm 6 m/s 739 mmHg 85%
    12:00 -6°C° 0.4 mm 6 m/s 738 mmHg 86%
    13:00 -6°C° 0.4 mm 6 m/s 738 mmHg 88%
    14:00 -6°C° 0.4 mm 5 m/s 737 mmHg 88%
    15:00 -6°C° 0.4 mm 5 m/s 737 mmHg 89%
    16:00 -6°C° 0.4 mm 5 m/s 736 mmHg 89%
    17:00 -5°C° 0.3 mm 4 m/s 736 mmHg 90%
    18:00 -5°C° 0.3 mm 4 m/s 735 mmHg 91%
    19:00 -5°C° 0.3 mm 4 m/s 735 mmHg 91%
    20:00 -5°C° 0.3 mm 4 m/s 735 mmHg 90%
    21:00 -7°C° 0.3 mm 4 m/s 735 mmHg 88%
    22:00 -7°C° 0.3 mm 5 m/s 735 mmHg 87%
    23:00 -7°C° 0.1 mm 4 m/s 735 mmHg 87%

    Après-demain, 22 Novembre, Jeudi

    Heure Température Précipitation Vent Pression Humidité
    00:00 -8°C° 0.1 mm 4 m/s 735 mmHg 88%
    01:00 -9°C° 0.1 mm 4 m/s 735 mmHg 88%
    02:00 -8°C° 0.2 mm 4 m/s 735 mmHg 88%
    03:00 -8°C° 0.2 mm 5 m/s 735 mmHg 87%
    04:00 -8°C° 0.2 mm 5 m/s 735 mmHg 87%
    05:00 -9°C° 0.1 mm 4 m/s 735 mmHg 88%
    06:00 -10°C° 0.1 mm 4 m/s 736 mmHg 88%
    07:00 -10°C° 0.1 mm 4 m/s 736 mmHg 88%
    08:00 -10°C° 0.1 mm 4 m/s 736 mmHg 88%
    09:00 -10°C° 0.1 mm 4 m/s 736 mmHg 87%
    10:00 -10°C° 0.1 mm 4 m/s 736 mmHg 86%
    11:00 -10°C° 0.1 mm 4 m/s 736 mmHg 85%
    12:00 -10°C° 0.1 mm 4 m/s 736 mmHg 83%
    13:00 -10°C° 0.1 mm 4 m/s 736 mmHg 82%
    14:00 -11°C° 0 mm 4 m/s 736 mmHg 83%
    15:00 -11°C° 0 mm 4 m/s 736 mmHg 83%
    16:00 -12°C° 0 mm 3 m/s 736 mmHg 84%
    17:00 -12°C° 0 mm 3 m/s 737 mmHg 86%
    18:00 -12°C° 0 mm 2 m/s 737 mmHg 87%
    19:00 -12°C° 0 mm 2 m/s 737 mmHg 89%
    20:00 -12°C° 0 mm 2 m/s 736 mmHg 91%
    21:00 -12°C° 0 mm 2 m/s 736 mmHg 92%
    22:00 -12°C° 0 mm 2 m/s 736 mmHg 94%
    23:00 -12°C° 0.3 mm 3 m/s 735 mmHg 93%

    23 Novembre, Vendredi

    Heure Température Précipitation Vent Pression Humidité
    00:00 -10°C° 0.3 mm 3 m/s 734 mmHg 92%
    01:00 -10°C° 0.3 mm 4 m/s 734 mmHg 92%
    02:00 -10°C° 0.6 mm 4 m/s 733 mmHg 92%
    03:00 -9°C° 0.6 mm 4 m/s 733 mmHg 92%
    04:00 -9°C° 0.6 mm 4 m/s 732 mmHg 92%
    05:00 -8°C° 0.5 mm 4 m/s 732 mmHg 92%
    06:00 -8°C° 0.5 mm 4 m/s 732 mmHg 92%
    07:00 -8°C° 0.5 mm 4 m/s 732 mmHg 92%
    08:00 -8°C° 0.4 mm 4 m/s 732 mmHg 91%
    09:00 -8°C° 0.4 mm 4 m/s 732 mmHg 91%
    10:00 -7°C° 0.4 mm 4 m/s 733 mmHg 91%
    11:00 -8°C° 0.1 mm 4 m/s 733 mmHg 90%
    12:00 -8°C° 0.1 mm 4 m/s 733 mmHg 89%
    13:00 -9°C° 0.1 mm 4 m/s 734 mmHg 88%
    14:00 -10°C° 0 mm 4 m/s 734 mmHg 88%
    15:00 -11°C° 0 mm 4 m/s 735 mmHg 88%
    16:00 -12°C° 0 mm 4 m/s 736 mmHg 88%
    17:00 -14°C° 0 mm 4 m/s 736 mmHg 87%
    18:00 -15°C° 0 mm 4 m/s 737 mmHg 86%
    19:00 -16°C° 0 mm 4 m/s 738 mmHg 86%
    20:00 -16°C° 0 mm 3 m/s 738 mmHg 87%
    21:00 -17°C° 0 mm 3 m/s 739 mmHg 88%
    22:00 -17°C° 0 mm 2 m/s 739 mmHg 90%
    23:00 -18°C° 0 mm 2 m/s 740 mmHg 91%

    24 Novembre, Samedi

    Heure Température Précipitation Vent Pression Humidité
    00:00 -18°C° 0 mm 2 m/s 740 mmHg 93%
    01:00 -19°C° 0 mm 2 m/s 741 mmHg 95%
    02:00 -18°C° 0 mm 2 m/s 741 mmHg 96%
    03:00 -18°C° 0 mm 2 m/s 741 mmHg 96%
    04:00 -17°C° 0 mm 2 m/s 742 mmHg 97%
    05:00 -16°C° 0.1 mm 2 m/s 742 mmHg 96%
    06:00 -16°C° 0.1 mm 3 m/s 742 mmHg 95%
    07:00 -15°C° 0.1 mm 3 m/s 742 mmHg 95%
    08:00 -14°C° 0.1 mm 3 m/s 742 mmHg 93%
    09:00 -14°C° 0.1 mm 4 m/s 742 mmHg 92%
    10:00 -11°C° 0.1 mm 4 m/s 742 mmHg 91%
    11:00 -10°C° 0.1 mm 4 m/s 742 mmHg 90%
    12:00 -10°C° 0.1 mm 5 m/s 742 mmHg 88%
    13:00 -10°C° 0.1 mm 5 m/s 742 mmHg 86%
    14:00 -10°C° 0.1 mm 5 m/s 743 mmHg 88%
    15:00 -9°C° 0.1 mm 4 m/s 743 mmHg 89%
    16:00 -9°C° 0.1 mm 4 m/s 743 mmHg 91%
    17:00 -10°C° 0.4 mm 5 m/s 743 mmHg 91%
    18:00 -8°C° 0.4 mm 5 m/s 743 mmHg 92%
    19:00 -8°C° 0.4 mm 5 m/s 743 mmHg 92%
    20:00 -9°C° 0.4 mm 6 m/s 743 mmHg 91%
    21:00 -8°C° 0.4 mm 6 m/s 743 mmHg 90%
    22:00 -8°C° 0.4 mm 6 m/s 743 mmHg 88%
    23:00 -8°C° 0.2 mm 6 m/s 743 mmHg 89%

    25 Novembre, Dimanche

    Heure Température Précipitation Vent Pression Humidité
    00:00 -8°C° 0.2 mm 6 m/s 743 mmHg 89%
    01:00 -9°C° 0.2 mm 6 m/s 743 mmHg 89%
    02:00 -9°C° 0.2 mm 6 m/s 744 mmHg 89%
    03:00 -9°C° 0.2 mm 6 m/s 744 mmHg 89%
    04:00 -8°C° 0.2 mm 6 m/s 744 mmHg 89%
    05:00 -8°C° 0.1 mm 6 m/s 744 mmHg 89%
    06:00 -8°C° 0.1 mm 6 m/s 743 mmHg 89%
    07:00 -8°C° 0.1 mm 6 m/s 743 mmHg 89%
    08:00 -8°C° 0.2 mm 6 m/s 743 mmHg 88%
    09:00 -8°C° 0.2 mm 6 m/s 743 mmHg 87%
    10:00 -8°C° 0.2 mm 7 m/s 743 mmHg 87%
    11:00 -8°C° 0.2 mm 7 m/s 743 mmHg 87%
    12:00 -7°C° 0.2 mm 7 m/s 742 mmHg 87%
    13:00 -7°C° 0.2 mm 7 m/s 742 mmHg 87%
    14:00 -7°C° 0.4 mm 7 m/s 742 mmHg 88%
    15:00 -6°C° 0.4 mm 6 m/s 742 mmHg 89%
    16:00 -8°C° 0.4 mm 6 m/s 742 mmHg 90%
    17:00 -6°C° 0.3 mm 6 m/s 743 mmHg 90%
    18:00 -6°C° 0.3 mm 6 m/s 743 mmHg 90%
    19:00 -6°C° 0.3 mm 5 m/s 744 mmHg 91%
    20:00 -6°C° 0.1 mm 5 m/s 744 mmHg 91%
    21:00 -7°C° 0.1 mm 4 m/s 745 mmHg 92%
    22:00 -7°C° 0.1 mm 4 m/s 745 mmHg 92%
    23:00 -7°C° 0 mm 4 m/s 746 mmHg 93%
    Voir plus